Regional Weather Roundup
Issued by NWS

Home | Current Version | Previous Version | Graphics & Text | Print | Product List | Glossary On
Versions: 1 2 3 4 5 6 7 8 9 10 11 12 13 14 15 16 17 18 19 20 21 22 23 24 25 26 27 28 29 30 31 32 33 34 35 36 37 38 39 40 41 42 43 44 45 46 47 48 49 50
000
ASUS43 KFSD 281502
RWRSD

WEATHER ROUNDUP FOR SOUTH DAKOTA
NATIONAL WEATHER SERVICE SIOUX FALLS SD
900 AM CST WED JAN 28 2015

NOTE: "FAIR" INDICATES FEW OR NO CLOUDS BELOW 12,000 FEET WITH NO
SIGNIFICANT WEATHER AND/OR OBSTRUCTIONS TO VISIBILITY.


SDZ001>005-009-010-012>017-281600-
NORTHWEST AND NORTH CENTRAL SOUTH DAKOTA

CITY           SKY/WX    TMP DP  RH WIND       PRES   REMARKS
BUFFALO          N/A     39  29  67 W10       29.78R
FAITH            N/A     42  30  62 NW12      29.77R
MOBRIDGE       MOCLDY    32  29  88 N3        29.71R
$$

SDZ012>016-024>037-041>051-057-063-072>074-281600-
SOUTHWEST AND SOUTH CENTRAL SOUTH DAKOTA

CITY           SKY/WX    TMP DP  RH WIND       PRES   REMARKS
RAPID CTY ARPT MOCLDY    52  28  39 NW18      29.82R
PIERRE         MOCLDY    31  30  96 W8        29.73R WCI  23
CUSTER         CLOUDY    45  22  40 NW8       29.90R
ELLSWORTH AFB  CLOUDY    53  28  37 NW21      29.82R
PHILIP         MOCLDY    40  30  67 SW10      29.78R
PINE RIDGE     PTCLDY    44  30  57 W9        29.88R
WINNER         FAIR      46  32  58 W12       29.73R
$$

SDZ004>011-016>023-039-040-281600-
NORTHEAST SOUTH DAKOTA

CITY           SKY/WX    TMP DP  RH WIND       PRES   REMARKS
ABERDEEN       CLOUDY    32  28  85 CALM      29.75R
WATERTOWN      MOCLDY    33  29  85 SE8       29.74F WCI  26
SISSETON         N/A     31  31 100 S14       29.78F WCI  21
$$

SDZ017-020-022-023-036>040-048>070-281600-
SOUTHEAST SOUTH DAKOTA

CITY           SKY/WX    TMP DP  RH WIND       PRES   REMARKS
SIOUX FALLS    CLOUDY    33  30  88 S13G21    29.77F WCI  24
HURON          MOCLDY    33  30  88 S9        29.71S WCI  25
MITCHELL       MOCLDY    34  31  88 S12       29.72S WCI  25
YANKTON        PTSUNNY   34  28  80 SE8       29.78F WCI  27
$$

ABBREVIATIONS USED IN REMARKS
   TC - TEMPERATURE IN CELSIUS
  WCI - WIND CHILL INDEX
   HX - HEAT INDEX
  VSB - VISIBILITY



USA.gov is the U.S. government's official web portal to all federal, state and local government web resources and services.